Regional Weather Roundup
Issued by NWS

Home | Current Version | Previous Version | Text Only | Print | Product List | Glossary On
Versions: 1 2 3 4 5 6 7 8 9 10 11 12 13 14 15 16 17 18 19 20 21 22 23 24 25 26 27 28
000
ASUS45 KPSR 261410
RWRAZ

ARIZONA HOURLY REGIONAL WEATHER ROUNDUP
NATIONAL WEATHER SERVICE PHOENIX AZ
700 AM MST SUN MAR 26 2017

NOTE: FAIR INDICATES FEW OR NO CLOUDS BELOW 12,000 FEET WITH NO
SIGNIFICANT WEATHER AND/OR OBSTRUCTIONS TO VISIBILITY.

AZZ001>003-036-261500-
NORTHWEST ARIZONA

CITY           SKY/WX    TMP DP  RH WIND       PRES   REMARKS
BULLHEAD CITY  CLEAR     63  37  39 N9        29.95R
KINGMAN        PTCLDY    41  33  73 E7        30.01R
$$

AZZ004>008-015-016-018-261500-
NORTH CENTRAL ARIZONA

CITY           SKY/WX    TMP DP  RH WIND       PRES   REMARKS
GRAND CANYON   PTCLDY    24  23  96 CALM      30.04R
WILLIAMS       CLEAR     27  25  93 S6        30.04R WCI  20
PRESCOTT       PTCLDY    36  31  82 S5        30.03R WCI  32
FLAGSTAFF      CLEAR     32  23  69 CALM      30.02R
PAYSON         CLEAR     39  28  65 CALM      30.03S
PAGE           CLEAR     46  33  60 CALM      29.98R
$$

AZZ009>014-017-261500-
NORTHEAST ARIZONA

CITY           SKY/WX    TMP DP  RH WIND       PRES   REMARKS
WINSLOW        CLEAR     32  26  78 SW3       30.01R
SAINT JOHNS    CLEAR     35  25  66 W3        30.01R
WINDOW ROCK    CLEAR     31  28  89 CALM      29.99R
SHOW LOW       CLEAR     36  23  60 S6        30.03R WCI  31
$$

AZZ023-261500-
GREATER PHOENIX AREA

CITY           SKY/WX    TMP DP  RH WIND       PRES   REMARKS
PHOENIX        MOCLDY    57  36  45 E5        29.92R
BUCKEYE        CLEAR     50  34  53 N3        29.94R
GLENDALE       PTCLDY    52  37  58 CALM      29.94
LUKE AFB       CLEAR     52  38  60 NW3       29.92R
DEER VALLEY    CLEAR     53  35  50 E5        29.92R
SCOTTSDALE     CLEAR     53  38  56 CALM      29.94R
MESA-GATEWAY   PTCLDY    48  36  61 NE6       29.95R
CHANDLER       CLEAR     52  37  58 CALM      29.94R
$$

AZZ027-028-261500-
SOUTHWEST MARICOPA COUNTY AND PINAL COUNTY

CITY           SKY/WX    TMP DP  RH WIND       PRES   REMARKS
CASA GRANDE    NOT AVBL
GILA BEND      MOCLDY    53  32  45 SE6       29.93R
$$

AZZ503-504-507>509-261500-
SOUTHEAST ARIZONA

CITY           SKY/WX    TMP DP  RH WIND       PRES   REMARKS
TUCSON         CLEAR     51  27  39 SE8       29.98R
DAVIS-MONTHAN  CLEAR     50  29  44 SE7       29.98R
RYAN FIELD     CLEAR     46  28  49 CALM      29.99R
NOGALES        CLEAR     45  27  49 CALM      30.00R
SIERRA VISTA   CLEAR     50  27  41 SW7       30.03R
DOUGLAS        CLEAR     47  27  45 N6        30.01R
SAFFORD        CLEAR     47  27  45 S3        29.96R
$$

AZZ020-021-025-026-031-261500-
SOUTHWEST ARIZONA

CITY           SKY/WX    TMP DP  RH WIND       PRES   REMARKS
YUMA           CLEAR     61  49  64 NW7       29.92R
$$

CAZ031-033-041-043-047-048-061-261500-
SOUTHERN CALIFORNIA

CITY           SKY/WX    TMP DP  RH WIND       PRES   REMARKS
DOWNTOWN L.A.  CLOUDY    58  52  80 NE5       30.02S
L.A. AIRPORT   PTCLDY    54  52  93 E3        30.03R
SAN DIEGO      CLOUDY    59  53  80 N6        30.05R
BURBANK        CLOUDY    51  47  86 CALM      30.02R
ONTARIO        MOCLDY    52  51  97 CALM      30.03R
RIVERSIDE      MOCLDY    52  50  93 CALM      30.03R
PALM SPRINGS   CLEAR     59  47  64 CALM      29.95R
EL CENTRO NAS  CLEAR     54  39  57 NW3       29.94R
IMPERIAL       CLEAR     54  42  64 W5        29.92R
BLYTHE         CLEAR     58  40  51 VRB3      29.94R
NEEDLES        CLEAR     59  38  45 NW5       29.95R
$$

NVZ020-UTZ003-261500-
SOUTHERN NEVADA-UTAH

CITY           SKY/WX    TMP DP  RH WIND       PRES   REMARKS
LAS VEGAS      PTCLDY    53  37  54 S3        29.99R
SALT LAKE CITY PTCLDY    34  33  96 SE7       30.04R WCI  28
$$

NMZ009-TXZ055-261500-
NEW MEXICO-WEST TEXAS

CITY           SKY/WX    TMP DP  RH WIND       PRES   REMARKS
ALBUQUERQUE    MOSUNNY   39  28  64 E7        29.95R WCI  34
EL PASO        MOSUNNY   60  25  26 VRB3      29.93R
$$


........................KEY........................
SKY/WX - SKY CONDITION/WEATHER
TMP    - TEMPERATURE IN FAHRENHEIT
DP     - DEW POINT IN FAHRENHEIT
RH     - RELATIVE HUMIDITY IN PERCENT
WIND   - DIRECTION AND SPEED IN MILES PER HOUR (MPH)
VRB    - VARIABLE WIND DIRECTION
PRES   - MEAN SEA LEVEL PRESSURE IN INCHES OF MERCURY
         F - FALLING PRESSURE   R - RISING PRESSURE
         S - STEADY PRESSURE
VSB    - VISIBILITY IN MILES
HX     - HEAT INDEX IN FAHRENHEIT
WCI    - WIND CHILL INDEX IN FAHRENHEIT
TC     - TEMPERATURE IN CELSIUS WHICH IS ALSO KNOWN AS
         TEMPERATURE IN CENTIGRADE
AFB    - AIR FORCE BASE
         LUKE AFB IS LUKE AIR FORCE BASE
         DAVIS-MONTHAN IS DAVIS-MONTHAN AIR FORCE BASE
NAS    - NAVAL AIR STATION
         EL CENTRO NAS IS EL CENTRO NAVAL AIR STATION
N/A    - NOT AVAILABLE





USA.gov is the U.S. government's official web portal to all federal, state and local government web resources and services.